[[{"header":{"parameterUnit":"m.s-1","parameterCategory":2,"la1":30.2991,"la2":30.254,"lo1":-89.0895,"lo2":-89.0444,"dy":0.0017,"dx":0.0017,"nx":28,"ny":28,"refTime":"2024-04-23T09:00:00:Z","depth":"0","parameterNumber":2,"parameterNumberName":"U-component_of_CURRENTS"},"data":[0,0,0,0,0,0,0,0,0,0,0,0,0,0,0,0,0,0,0,0,0,0,0,0,0,0,0,0,0,0,0,0,0,0,0,0,0,0,0,0,0,0,0,0,0,0,0,0,0,0,0,0,0,0,0,0,0,0,0.3002,0.3003,0,0.3026,0.3026,0.3025,0.2986,0.2985,0.2984,0.2983,0.2858,0.2855,0.2852,0,0,0,0,0,0,0,0,0,0,0,0,0,0.2895,0.2897,0.3002,0.3003,0.3004,0.3026,0.3026,0.3025,0.2986,0.2985,0.2984,0.2983,0.2858,0.2855,0.2852,0,0,0,0,0,0,0,0,0,0,0,0,0,0.2927,0.2898,0.3002,0.2991,0.2991,0.3026,0.3026,0.3025,0.2986,0.2985,0.2984,0.2983,0.2859,0.2856,0.2852,0.2852,0,0,0.284,0.2838,0,0,0,0,0,0,0,0,0.2925,0.293,0.2992,0.2992,0.2992,0.3007,0.2942,0.2962,0.2986,0.2982,0.2983,0.2982,0.2898,0.2891,0.2892,0.2846,0.284,0.2839,0.2837,0.2835,0.2834,0,0,0,0,0,0,0,0.2923,0.2929,0.3005,0.2993,0.2993,0.2976,0.2979,0.2946,0.2939,0.2982,0.2981,0.2993,0.2896,0.2896,0.2888,0.2838,0.284,0.2836,0.2834,0.2832,0.2808,0.281,0,0,0,0,0,0,0.2936,0.2927,0.3005,0.3007,0.2962,0.298,0.2982,0.2998,0.2943,0.2936,0.2994,0.2991,0.2903,0.2893,0.2884,0.2905,0.2835,0.2832,0.283,0.2806,0.2808,0.281,0,0,0,0,0,0,0.2933,0.2942,0.3004,0.2972,0.2979,0.2984,0.3001,0.3,0.301,0.2955,0.2943,0.3008,0.2902,0.2889,0.2864,0.2898,0.283,0.2826,0.2804,0.2807,0.2809,0.293,0,0,0,0,0,0,0.293,0.2941,0.2954,0.2973,0.2982,0.3035,0.3003,0.3001,0.3022,0.3018,0.2963,0.2949,0.29,0.287,0.286,0.2891,0.2823,0.2802,0.2806,0.2809,0.2924,0.2936,0.2947,0,0,0,0,0,0.2926,0.2944,0.2954,0.2964,0.3,0.3037,0.3039,0.3033,0.3024,0.3036,0.2997,0.2951,0.2884,0.2868,0.2856,0.2887,0.2801,0.2805,0.2808,0.2919,0.2934,0.2947,0,0,0,0,0,0,0.289,0.2943,0.2954,0.2984,0.3017,0.3033,0.3042,0.305,0.3033,0.3021,0.2965,0.295,0.2947,0.2901,0.2886,0.2891,0.2838,0.284,0.2926,0.294,0.2951,0.2979,0.282,0,0,0,0,0,0.2897,0.2929,0.2974,0.2998,0.3017,0.3037,0.3051,0.3056,0.305,0.3043,0.3006,0.2969,0.2955,0.2933,0.2905,0.29,0.2922,0.2915,0.2927,0.2937,0.2952,0.3037,0.3059,0.2823,0.2823,0.2823,0,0,0.2886,0.2923,0.2938,0.2994,0.3013,0.3043,0.304,0.3071,0.3089,0.3029,0.3024,0.3008,0.2965,0.2965,0.2959,0.2927,0.3018,0.2942,0.2951,0.2961,0.3044,0.3067,0.3088,0.2826,0.2825,0.2825,0,0,0.2884,0.2921,0.2947,0.2982,0.3033,0.3053,0.3071,0.31,0.3105,0.3112,0.3085,0.3098,0.3046,0.3044,0.3031,0.3091,0.3083,0.3078,0.3149,0.3233,0.3253,0.3272,0.3347,0.3371,0.3077,0.3077,0.3077,0,0.2868,0.2916,0.2958,0.2992,0.3023,0.3062,0.3093,0.3111,0.3125,0.3148,0.3116,0.3133,0.309,0.3133,0.315,0.312,0.3165,0.31,0.3252,0.327,0.3287,0.3359,0.3384,0.3083,0.3082,0.3082,0.3081,0,0.289,0.2927,0.2946,0.3007,0.3042,0.3081,0.3123,0.3155,0.3171,0.3198,0.3252,0.3229,0.3247,0.3242,0.3204,0.3309,0.3304,0.3266,0.3223,0.3319,0.3388,0.3412,0.3092,0.309,0.3088,0.3086,0,0,0.2866,0.2946,0.2953,0.2989,0.3059,0.3095,0.3139,0.3211,0.3261,0.3288,0.3362,0.3365,0.3394,0.3385,0.3372,0.3433,0.3586,0.3404,0.3406,0.3491,0.3787,0.369,0.3706,0.3587,0.3592,0.3595,0.3794,0,0.2876,0.2937,0.2975,0.3035,0.3079,0.3133,0.3174,0.3241,0.3294,0.3371,0.3418,0.3469,0.3438,0.3465,0.3534,0.3565,0.3653,0.3536,0.3669,0.3673,0.3586,0.3732,0.3483,0.3631,0.3817,0.3821,0.3824,0,0.2901,0.2942,0.2997,0.3078,0.31,0.3134,0.3242,0.3285,0.3403,0.3448,0.3546,0.3584,0.3692,0.3642,0.3805,0.3738,0.3786,0.3811,0.3819,0.3702,0.3621,0.356,0.3667,0.3537,0.3861,0.3858,0.3855,0,0.2901,0.2968,0.3016,0.3043,0.3127,0.3163,0.3211,0.3315,0.338,0.3517,0.3597,0.372,0.3795,0.3888,0.395,0.3897,0.4128,0.4052,0.4027,0.402,0.3818,0.3785,0.3819,0.4203,0.4202,0.4202,0.4201,0,0.2926,0.2971,0.3018,0.3049,0.311,0.3166,0.3252,0.3319,0.3444,0.3553,0.3646,0.3769,0.3865,0.3997,0.4034,0.4121,0.4211,0.4085,0.4082,0.3851,0.382,0.37,0.3652,0.4209,0.4208,0.4206,0.4205,0,0.2947,0.2976,0.3035,0.3098,0.3117,0.3165,0.3268,0.3345,0.3453,0.3608,0.3664,0.3849,0.4002,0.4096,0.4246,0.422,0.4168,0.4313,0.4032,0.399,0.377,0.3737,0.3687,0.3593,0.4304,0.4303,0.4302,0,0.2978,0.3004,0.3054,0.3085,0.3116,0.3185,0.3242,0.3343,0.3429,0.3663,0.3746,0.3943,0.4065,0.4248,0.4222,0.4285,0.4173,0.4097,0.393,0.3767,0.373,0.3601,0.3517,0.3727,0.3721,0.3717,0.3713,0,0.3028,0.3031,0.3069,0.3106,0.3158,0.3214,0.3296,0.3357,0.3502,0.3619,0.3798,0.3912,0.4068,0.4004,0.4065,0.4064,0.3841,0.4004,0.3913,0.3362,0.3148,0.3049,0.3597,0.3674,0.3678,0.368,0.3683,0.3684,0.306,0.3074,0.3093,0.3128,0.3184,0.3219,0.3224,0.3323,0.3414,0.3529,0.3728,0.3782,0.3773,0.3789,0.3778,0.3531,0.3599,0.3366,0.3373,0.3285,0.3077,0.3541,0.3551,0.3554,0.3557,0.3559,0.3561,0,0.3068,0.3071,0.3113,0.3129,0.3155,0.3185,0.3241,0.3214,0.3253,0.3377,0.3473,0.3394,0.3293,0.325,0.3052,0.2911,0.2774,0.2823,0.2573,0.2551,0.3025,0.2875,0.2641,0.2641,0.2642,0.2642,0.2642,0.2642,0.3076,0.3077,0.3069,0.3074,0.3087,0.3044,0.3035,0.3007,0.3028,0.2961,0.2884,0.2913,0.2893,0.2734,0.2507,0.2435,0.2267,0.212,0.2226,0.2521,0.257,0.2617,0.2465,0.2149,0.2148,0.157,0.1566,0.1562]},{"header":{"parameterUnit":"m.s-1","parameterCategory":2,"la1":30.2991,"la2":30.254,"lo1":-89.0895,"lo2":-89.0444,"dy":0.0017,"dx":0.0017,"nx":28,"ny":28,"refTime":"2024-04-23T09:00:00:Z","depth":"0","parameterNumber":3,"parameterNumberName":"V-component_of_CURRENTS"},"data":[0,0,0,0,0,0,0,0,0,0,0,0,0,0,0,0,0,0,0,0,0,0,0,0,0,0,0,0,0,0,0,0,0,0,0,0,0,0,0,0,0,0,0,0,0,0,0,0,0,0,0,0,0,0,0,0,0,0,0.0378,0.0378,0,0.0326,0.0325,0.0324,0.027,0.027,0.027,0.0269,0.0206,0.0205,0.0203,0,0,0,0,0,0,0,0,0,0,0,0,0,0.0379,0.0379,0.0378,0.0378,0.0377,0.0326,0.0325,0.0324,0.0271,0.027,0.0269,0.0269,0.0206,0.0205,0.0203,0,0,0,0,0,0,0,0,0,0,0,0,0,0.0355,0.0379,0.0378,0.0347,0.0343,0.0326,0.0325,0.0324,0.0271,0.027,0.0269,0.0269,0.0207,0.0205,0.0203,0.0206,0,0,0.0197,0.0197,0,0,0,0,0,0,0,0,0.0357,0.0355,0.0352,0.0349,0.0345,0.0307,0.0302,0.0285,0.0271,0.0295,0.0269,0.0268,0.0241,0.0236,0.0224,0.0203,0.02,0.0197,0.0196,0.0195,0.0195,0,0,0,0,0,0,0,0.0359,0.0357,0.0354,0.0351,0.0348,0.0317,0.0313,0.0298,0.027,0.0293,0.029,0.0289,0.0239,0.0226,0.0222,0.0199,0.0197,0.0196,0.0195,0.0194,0.0167,0.0167,0,0,0,0,0,0,0.0375,0.0359,0.0356,0.0353,0.0353,0.0318,0.0314,0.0317,0.027,0.0264,0.029,0.0287,0.0229,0.0224,0.022,0.0232,0.0195,0.0194,0.0193,0.0167,0.0167,0.0168,0,0,0,0,0,0,0.0375,0.0375,0.0358,0.0357,0.0353,0.032,0.0324,0.0317,0.0307,0.0269,0.0261,0.0288,0.0229,0.0222,0.0205,0.0229,0.0193,0.0191,0.0166,0.0167,0.0167,0.025,0,0,0,0,0,0,0.0375,0.0376,0.0383,0.0358,0.0354,0.0358,0.0325,0.0316,0.0309,0.0305,0.0265,0.0258,0.0228,0.0208,0.0203,0.0226,0.019,0.0166,0.0166,0.0167,0.0246,0.0253,0.0259,0,0,0,0,0,0.0375,0.0392,0.0384,0.0383,0.0365,0.0359,0.0354,0.0325,0.031,0.0312,0.0279,0.0259,0.0209,0.0207,0.0201,0.0224,0.0165,0.0166,0.0167,0.0244,0.0252,0.0259,0,0,0,0,0,0,0.0394,0.0388,0.0378,0.0391,0.038,0.0351,0.0351,0.0334,0.031,0.0305,0.0263,0.0255,0.0245,0.0222,0.0221,0.0216,0.0185,0.0185,0.0245,0.0252,0.0259,0.0303,0.0188,0,0,0,0,0,0.0404,0.0417,0.0401,0.0412,0.0409,0.0382,0.0376,0.0361,0.0337,0.0325,0.0297,0.0267,0.0244,0.0239,0.021,0.0216,0.0213,0.0225,0.0231,0.0237,0.0268,0.0269,0.028,0.0171,0.0171,0.017,0,0,0.0415,0.0414,0.042,0.0418,0.0404,0.0412,0.0376,0.0375,0.0386,0.0324,0.0324,0.0285,0.0247,0.0243,0.0238,0.023,0.0265,0.0238,0.0243,0.0272,0.0272,0.0283,0.0292,0.0171,0.0171,0.0171,0,0,0.0447,0.0441,0.0462,0.0458,0.0451,0.0438,0.0444,0.0422,0.0414,0.0411,0.0365,0.0345,0.0313,0.0294,0.028,0.0307,0.029,0.0292,0.0372,0.0373,0.0383,0.0391,0.0405,0.0414,0.0305,0.0305,0.0306,0,0.0458,0.0486,0.0466,0.0483,0.049,0.0457,0.0482,0.0471,0.0447,0.0456,0.0423,0.0389,0.0343,0.0359,0.0357,0.0325,0.0326,0.0349,0.0384,0.0392,0.04,0.0411,0.042,0.0309,0.0309,0.0309,0.0308,0,0.0505,0.0525,0.0537,0.0551,0.0554,0.0571,0.0558,0.0564,0.055,0.054,0.0547,0.0491,0.0482,0.0453,0.0411,0.0445,0.0429,0.0385,0.0373,0.0416,0.0425,0.0433,0.0315,0.0314,0.0313,0.0312,0,0,0.0538,0.0566,0.0571,0.06,0.0596,0.0613,0.0633,0.0654,0.0693,0.0658,0.0713,0.0648,0.0628,0.0611,0.0561,0.0556,0.0588,0.0503,0.0501,0.0532,0.0609,0.0564,0.0568,0.0551,0.0552,0.0554,0.0595,0,0.0583,0.0643,0.064,0.07,0.0733,0.0717,0.0749,0.0761,0.0763,0.0804,0.0765,0.0783,0.0687,0.0698,0.0676,0.0612,0.0613,0.0582,0.055,0.055,0.0517,0.0577,0.0547,0.0579,0.0603,0.0604,0.0605,0,0.0636,0.0673,0.0744,0.0802,0.0815,0.0846,0.091,0.0934,0.0965,0.0971,0.0983,0.0953,0.0953,0.0863,0.0807,0.0794,0.072,0.0661,0.066,0.0603,0.0521,0.0536,0.0592,0.0459,0.0617,0.0616,0.0615,0,0.0697,0.0753,0.0822,0.0836,0.0887,0.0928,0.0958,0.0992,0.1047,0.1096,0.1154,0.1122,0.1149,0.1049,0.0917,0.0874,0.0857,0.0777,0.0674,0.067,0.0633,0.0622,0.0571,0.0752,0.0752,0.0752,0.0752,0,0.0758,0.0814,0.0862,0.0902,0.0996,0.1005,0.1111,0.1132,0.1207,0.1308,0.1259,0.1352,0.1197,0.1161,0.1004,0.0881,0.0926,0.0721,0.0687,0.0658,0.065,0.052,0.0455,0.0753,0.0753,0.0753,0.0752,0,0.0818,0.0846,0.0932,0.1002,0.103,0.1103,0.1209,0.129,0.1345,0.1489,0.1524,0.1548,0.1494,0.1322,0.1179,0.1018,0.0805,0.082,0.0802,0.0765,0.0517,0.0458,0.0404,0.0354,0.0725,0.0725,0.0724,0,0.0858,0.091,0.1006,0.1066,0.1104,0.1206,0.1284,0.1353,0.1452,0.1623,0.1713,0.1724,0.1759,0.1536,0.1225,0.0966,0.0813,0.0771,0.0666,0.0532,0.0443,0.0393,0.0351,0.0653,0.0651,0.0651,0.065,0,0.0932,0.0966,0.1035,0.1147,0.1241,0.1351,0.1472,0.1573,0.169,0.1832,0.2012,0.2068,0.1866,0.16,0.1225,0.1029,0.0677,0.0743,0.0613,0.0405,0.0344,0.0269,0.0603,0.0642,0.0642,0.0643,0.0643,0.0644,0.0986,0.104,0.1122,0.123,0.1342,0.1478,0.1581,0.1738,0.1921,0.2141,0.2198,0.2292,0.1912,0.1398,0.1131,0.0594,0.0622,0.0421,0.0373,0.0344,0.0261,0.0584,0.0567,0.0567,0.0568,0.0568,0.0568,0,0.1025,0.1083,0.1194,0.1322,0.1445,0.1494,0.1692,0.1816,0.2043,0.2249,0.2404,0.2222,0.1779,0.1289,0.0573,0.0266,0.0167,0.0114,0.0035,0.0017,0.0311,0.0269,0.0176,0.0176,0.0176,0.0176,0.0177,0.0177,0.1047,0.113,0.1178,0.1366,0.147,0.1634,0.1744,0.1958,0.2129,0.2334,0.2359,0.2356,0.1939,0.0833,0.0094,-0.0054,-0.0227,-0.0271,-0.0328,-0.0153,-0.0128,-0.0105,-0.0161,-0.0342,-0.0342,-0.0613,-0.0616,-0.0618]}],[{"header":{"parameterUnit":"m.s-1","parameterCategory":2,"la1":30.2991,"la2":30.254,"lo1":-89.0895,"lo2":-89.0444,"dy":0.0017,"dx":0.0017,"nx":28,"ny":28,"refTime":"2024-04-23T09:00:00:Z","depth":"2","parameterNumber":2,"parameterNumberName":"U-component_of_CURRENTS"},"data":[0,0,0,0,0,0,0,0,0,0,0,0,0,0,0,0,0,0,0,0,0,0,0,0,0,0,0,0,0,0,0,0,0,0,0,0,0,0,0,0,0,0,0,0,0,0,0,0,0,0,0,0,0,0,0,0,0,0,0.2435,0.2436,0,0.2454,0.2454,0.2454,0.2452,0.2452,0.2452,0.2452,0.2445,0.2445,0.2445,0,0,0,0,0,0,0,0,0,0,0,0,0,0.2409,0.2409,0.2435,0.2436,0.2436,0.2454,0.2454,0.2454,0.2452,0.2452,0.2452,0.2452,0.2445,0.2445,0.2445,0,0,0,0,0,0,0,0,0,0,0,0,0,0.2422,0.2409,0.2435,0.2438,0.2439,0.2454,0.2454,0.2454,0.2452,0.2452,0.2452,0.2452,0.2445,0.2445,0.2445,0.2449,0,0,0.2445,0.2445,0,0,0,0,0,0,0,0,0.2421,0.2422,0.2438,0.2438,0.2439,0.2452,0.2442,0.2452,0.2452,0.2446,0.2452,0.2451,0.2446,0.2446,0.2448,0.2449,0.2448,0.2445,0.2445,0.2445,0.2445,0,0,0,0,0,0,0,0.242,0.2422,0.2441,0.2438,0.2439,0.2442,0.2444,0.2444,0.2445,0.2446,0.2447,0.2451,0.2446,0.2448,0.2448,0.2448,0.2445,0.2445,0.2445,0.2445,0.2501,0.2502,0,0,0,0,0,0,0.242,0.2421,0.2441,0.2442,0.2431,0.2443,0.2444,0.2447,0.2446,0.2446,0.2451,0.2451,0.2448,0.2448,0.2448,0.2492,0.2445,0.2444,0.2444,0.2499,0.2501,0.2503,0,0,0,0,0,0,0.242,0.2422,0.244,0.2433,0.2436,0.2444,0.2446,0.2447,0.2463,0.245,0.2449,0.2467,0.2448,0.2448,0.2466,0.249,0.2444,0.2444,0.2497,0.25,0.2502,0.2556,0,0,0,0,0,0,0.2419,0.2421,0.243,0.2433,0.2436,0.2456,0.2447,0.2448,0.2466,0.2466,0.2464,0.2462,0.2448,0.2467,0.2466,0.2489,0.2444,0.2495,0.2498,0.2501,0.2552,0.2559,0.2566,0,0,0,0,0,0.2418,0.243,0.2431,0.2434,0.2446,0.2457,0.2459,0.2463,0.2467,0.2476,0.2482,0.2463,0.2485,0.2468,0.2467,0.249,0.2494,0.2498,0.2501,0.2549,0.2558,0.2566,0,0,0,0,0,0,0.2422,0.2431,0.2432,0.2446,0.2455,0.2458,0.247,0.2475,0.2488,0.2492,0.248,0.2479,0.251,0.2494,0.2476,0.2517,0.2487,0.2491,0.2524,0.2532,0.2539,0.2564,0.2444,0,0,0,0,0,0.2427,0.2441,0.2446,0.2459,0.2465,0.2472,0.2481,0.2485,0.2493,0.2499,0.2498,0.2504,0.2522,0.2522,0.2531,0.2547,0.2571,0.2563,0.257,0.2576,0.2597,0.2662,0.2677,0.2514,0.2514,0.2514,0,0,0.2428,0.2441,0.2444,0.2462,0.2469,0.2483,0.2477,0.2496,0.2512,0.2496,0.2521,0.2533,0.2535,0.256,0.2571,0.2548,0.2635,0.2581,0.2585,0.2604,0.2667,0.2683,0.2697,0.2516,0.2516,0.2515,0,0,0.2435,0.2452,0.246,0.2473,0.2494,0.2504,0.2514,0.2525,0.2536,0.256,0.2564,0.2595,0.2599,0.2615,0.2622,0.2674,0.2678,0.2673,0.2717,0.2779,0.2793,0.2806,0.2856,0.2873,0.2666,0.2666,0.2666,0,0.2438,0.2452,0.2465,0.248,0.2499,0.2516,0.2532,0.2547,0.2565,0.2589,0.2574,0.2641,0.263,0.269,0.2702,0.2691,0.2727,0.2681,0.2789,0.2802,0.2815,0.2863,0.2881,0.2669,0.2668,0.2668,0.2668,0,0.2448,0.2464,0.2475,0.2502,0.2523,0.2545,0.2567,0.2593,0.2613,0.2635,0.2702,0.271,0.2753,0.2751,0.2737,0.2823,0.2821,0.2799,0.2768,0.2834,0.2881,0.2899,0.2673,0.2672,0.2671,0.267,0,0,0.2436,0.2474,0.2476,0.2495,0.2541,0.2557,0.2599,0.2647,0.269,0.2722,0.279,0.2822,0.2851,0.2863,0.2865,0.2907,0.3007,0.289,0.2891,0.2941,0.3153,0.3029,0.3036,0.3009,0.3012,0.3015,0.315,0,0.2441,0.247,0.2493,0.253,0.2549,0.2591,0.2631,0.2681,0.2727,0.2795,0.2845,0.2913,0.2886,0.2924,0.2966,0.3009,0.3057,0.2972,0.3081,0.3084,0.2967,0.3054,0.2788,0.2876,0.3168,0.317,0.3173,0,0.2442,0.2465,0.2497,0.2553,0.2566,0.26,0.2687,0.2726,0.2826,0.2867,0.2957,0.3005,0.3103,0.3058,0.3185,0.3138,0.3156,0.3175,0.318,0.3061,0.2993,0.2858,0.2898,0.3202,0.32,0.3198,0.3196,0,0.2429,0.247,0.2501,0.2519,0.2583,0.2619,0.2667,0.2756,0.2816,0.294,0.3008,0.3122,0.3204,0.326,0.3294,0.3262,0.3417,0.3372,0.3284,0.3275,0.3068,0.3034,0.3464,0.3464,0.3464,0.3463,0.3463,0,0.2433,0.2457,0.25,0.2517,0.2566,0.2621,0.2697,0.2758,0.2882,0.2962,0.3057,0.3153,0.3264,0.3352,0.3356,0.338,0.3474,0.3322,0.3312,0.3076,0.3044,0.3333,0.3316,0.3468,0.3467,0.3466,0.3465,0,0.2419,0.2447,0.2482,0.2542,0.2561,0.2604,0.2712,0.2777,0.289,0.3005,0.3063,0.3236,0.3347,0.3415,0.3521,0.346,0.3486,0.346,0.3169,0.312,0.3292,0.3276,0.3403,0.34,0.3398,0.3396,0.3394,0,0.2416,0.2429,0.2483,0.25,0.2531,0.2596,0.2647,0.277,0.2851,0.3034,0.3101,0.3268,0.3328,0.3441,0.3396,0.3396,0.3467,0.3134,0.3009,0.3314,0.3292,0.328,0.3268,0.2768,0.2761,0.2756,0.2751,0,0.2403,0.2427,0.2453,0.2478,0.2526,0.2561,0.265,0.2703,0.2845,0.2943,0.3059,0.3124,0.3234,0.3127,0.3135,0.3091,0.3108,0.3018,0.3451,0.2803,0.2719,0.2695,0.2704,0.2702,0.2707,0.2711,0.2713,0.2715,0.2393,0.2399,0.2425,0.2437,0.2466,0.2469,0.2487,0.2582,0.2656,0.2725,0.288,0.2875,0.2906,0.2786,0.2694,0.2635,0.2845,0.2703,0.2719,0.2741,0.2621,0.2535,0.2462,0.2466,0.2469,0.2471,0.2474,0,0.2358,0.236,0.2372,0.2368,0.2339,0.2425,0.2439,0.2421,0.2432,0.2513,0.2552,0.2332,0.2267,0.2322,0.2146,0.2116,0.2086,0.2034,0.1978,0.2029,0.2074,0.1919,0.1575,0.1572,0.1569,0.1567,0,0,0.2337,0.2314,0.2291,0.2204,0.2235,0.2209,0.2196,0.2165,0.2157,0.206,0.2042,0.2158,0.2252,0.1882,0.1821,0.1678,0.184,0.1609,0.2335,0.2322,0.2363,0.247,0.2289,0,0,0,0,0]},{"header":{"parameterUnit":"m.s-1","parameterCategory":2,"la1":30.2991,"la2":30.254,"lo1":-89.0895,"lo2":-89.0444,"dy":0.0017,"dx":0.0017,"nx":28,"ny":28,"refTime":"2024-04-23T09:00:00:Z","depth":"2","parameterNumber":3,"parameterNumberName":"V-component_of_CURRENTS"},"data":[0,0,0,0,0,0,0,0,0,0,0,0,0,0,0,0,0,0,0,0,0,0,0,0,0,0,0,0,0,0,0,0,0,0,0,0,0,0,0,0,0,0,0,0,0,0,0,0,0,0,0,0,0,0,0,0,0,0,0.0164,0.0163,0,0.0116,0.0116,0.0115,0.0086,0.0086,0.0086,0.0086,0.0054,0.0053,0.0052,0,0,0,0,0,0,0,0,0,0,0,0,0,0.0194,0.0194,0.0164,0.0163,0.0163,0.0116,0.0116,0.0115,0.0086,0.0086,0.0086,0.0086,0.0054,0.0053,0.0052,0,0,0,0,0,0,0,0,0,0,0,0,0,0.0167,0.0193,0.0164,0.0143,0.014,0.0116,0.0116,0.0115,0.0086,0.0086,0.0086,0.0086,0.0054,0.0053,0.0052,0.005,0,0,0.0049,0.0048,0,0,0,0,0,0,0,0,0.0169,0.0166,0.0146,0.0144,0.0141,0.0107,0.0114,0.0094,0.0086,0.0107,0.0086,0.0086,0.0073,0.007,0.0062,0.0049,0.0047,0.0049,0.0048,0.0048,0.0047,0,0,0,0,0,0,0,0.0171,0.0168,0.0145,0.0146,0.0143,0.0123,0.0119,0.011,0.0092,0.0105,0.0103,0.0097,0.0072,0.0063,0.0061,0.0047,0.0049,0.0048,0.0047,0.0047,0.003,0.0031,0,0,0,0,0,0,0.0178,0.017,0.0147,0.0144,0.0154,0.0123,0.0119,0.0118,0.0092,0.0088,0.0098,0.0096,0.0065,0.0062,0.006,0.0067,0.0048,0.0047,0.0046,0.003,0.003,0.0031,0,0,0,0,0,0,0.0179,0.0177,0.0149,0.0155,0.015,0.0123,0.0122,0.0117,0.0112,0.0086,0.0082,0.0098,0.0065,0.0061,0.0054,0.0065,0.0046,0.0045,0.003,0.003,0.0031,0.0075,0,0,0,0,0,0,0.018,0.0178,0.0183,0.0156,0.015,0.0142,0.0122,0.0117,0.0109,0.0107,0.0085,0.0081,0.0064,0.0056,0.0053,0.0064,0.0044,0.003,0.003,0.003,0.0073,0.0077,0.008,0,0,0,0,0,0.0182,0.0193,0.0184,0.0181,0.0158,0.0142,0.0138,0.0117,0.0109,0.0111,0.0094,0.0082,0.0056,0.0055,0.0052,0.0062,0.003,0.003,0.003,0.0072,0.0076,0.008,0,0,0,0,0,0,0.0209,0.019,0.018,0.0185,0.0167,0.0137,0.0138,0.0123,0.011,0.0111,0.0086,0.0081,0.0077,0.0064,0.0063,0.0058,0.0041,0.0041,0.0074,0.0077,0.0081,0.0109,0.0043,0,0,0,0,0,0.0218,0.0222,0.0196,0.0201,0.0195,0.0168,0.016,0.0146,0.0129,0.0123,0.0105,0.0089,0.0076,0.0072,0.0057,0.0058,0.0045,0.0062,0.0065,0.0068,0.0088,0.0068,0.0072,0.0032,0.0032,0.0032,0,0,0.0228,0.022,0.0221,0.0207,0.0193,0.0193,0.0163,0.0157,0.0161,0.0123,0.0125,0.0099,0.0077,0.0074,0.0072,0.0066,0.007,0.0068,0.0071,0.009,0.0069,0.0073,0.0077,0.0033,0.0032,0.0032,0,0,0.0254,0.0246,0.0257,0.0248,0.0232,0.0216,0.0218,0.0191,0.0185,0.0178,0.0152,0.0137,0.0116,0.0103,0.0094,0.0108,0.0086,0.0099,0.0144,0.0124,0.0127,0.013,0.0113,0.0114,0.0104,0.0104,0.0105,0,0.0266,0.0279,0.0258,0.0266,0.0266,0.0231,0.0244,0.0232,0.0207,0.0209,0.0187,0.0161,0.0133,0.0139,0.0138,0.0118,0.0103,0.0131,0.0129,0.0132,0.0134,0.0116,0.0116,0.0107,0.0106,0.0106,0.0106,0,0.0298,0.0308,0.0315,0.0316,0.0313,0.0318,0.0299,0.0298,0.0282,0.0266,0.0263,0.0224,0.0213,0.0193,0.0169,0.0175,0.0157,0.0133,0.0123,0.0141,0.012,0.012,0.011,0.0109,0.0108,0.0108,0,0,0.0323,0.0335,0.0338,0.0354,0.0343,0.0348,0.0357,0.0358,0.0375,0.0342,0.0365,0.0322,0.03,0.0289,0.0254,0.0234,0.0221,0.0195,0.0193,0.0185,0.018,0.0135,0.013,0.0194,0.0194,0.0194,0.0157,0,0.0353,0.0388,0.0383,0.0419,0.0434,0.0418,0.0436,0.0433,0.0421,0.0432,0.0396,0.0403,0.0338,0.0342,0.0306,0.0252,0.0224,0.0234,0.0159,0.0157,0.012,0.013,0.0166,0.0133,0.0157,0.0157,0.0156,0,0.0385,0.0406,0.0449,0.0482,0.0489,0.0509,0.0538,0.055,0.0551,0.0545,0.0535,0.0507,0.0489,0.0427,0.0344,0.0354,0.0274,0.0219,0.0216,0.0164,0.0112,0.0119,0.0132,0.0156,0.0156,0.0156,0.0156,0,0.0421,0.0454,0.0497,0.0505,0.0533,0.0561,0.0581,0.0589,0.0623,0.0632,0.0657,0.061,0.0618,0.0513,0.0387,0.0373,0.0286,0.025,0.0133,0.0129,0.0143,0.0139,0.0185,0.0185,0.0185,0.0185,0.0185,0,0.0457,0.0489,0.0523,0.0548,0.0609,0.0616,0.0682,0.0689,0.0729,0.0785,0.073,0.0771,0.064,0.057,0.043,0.0285,0.0315,0.0152,0.012,0.0157,0.0155,0.0161,0.0159,0.0184,0.0184,0.0184,0.0185,0,0.0486,0.0505,0.0559,0.0608,0.0629,0.0678,0.0758,0.081,0.0834,0.0909,0.0929,0.0911,0.0833,0.0667,0.0513,0.0361,0.0212,0.0144,0.0195,0.0168,0.0059,0.006,0.0031,0.003,0.0028,0.0027,0.0026,0,0.05,0.0532,0.0606,0.0649,0.0677,0.0751,0.081,0.0859,0.0927,0.0999,0.1053,0.1017,0.0992,0.0742,0.0495,0.0247,0.0206,0.0095,0.0065,0.0074,0.0045,0.0048,0.0051,0.0101,0.0101,0.0101,0.01,0,0.0529,0.0561,0.0609,0.0699,0.0773,0.0853,0.0947,0.102,0.1094,0.1169,0.1253,0.1245,0.1028,0.0813,0.0465,0.0294,0.0136,0.0079,0.0091,0.0124,0.0134,0.0107,0.0109,0.0098,0.0098,0.0098,0.0098,0.0098,0.0553,0.0593,0.0667,0.0751,0.0832,0.0944,0.1039,0.1156,0.1285,0.1398,0.1377,0.1364,0.1101,0.0682,0.04,0.0115,0.0126,0.0008,0.0013,0.0016,0.0021,0.0026,-0.0029,-0.003,-0.003,-0.003,-0.0031,0,0.0583,0.0634,0.0711,0.0819,0.0912,0.0963,0.112,0.1228,0.1402,0.1477,0.1529,0.1258,0.1015,0.0723,0.0312,0.0037,0.003,-0.0053,0.001,0.0015,0.0018,0.0025,-0.0025,-0.0026,-0.0027,-0.0027,0,0,0.0601,0.0674,0.0712,0.0857,0.0947,0.1102,0.1206,0.1373,0.1469,0.1542,0.1534,0.1449,0.1103,0.0787,0.0443,0.0226,0.0176,0.017,0.0196,0.0317,0.0324,0.0084,0.0103,0,0,0,0,0]}],[{"header":{"parameterUnit":"m.s-1","parameterCategory":2,"la1":30.2991,"la2":30.254,"lo1":-89.0895,"lo2":-89.0444,"dy":0.0017,"dx":0.0017,"nx":28,"ny":28,"refTime":"2024-04-23T09:00:00:Z","depth":"4","parameterNumber":2,"parameterNumberName":"U-component_of_CURRENTS"},"data":[0,0,0,0,0,0,0,0,0,0,0,0,0,0,0,0,0,0,0,0,0,0,0,0,0,0,0,0,0,0,0,0,0,0,0,0,0,0,0,0,0,0,0,0,0,0,0,0,0,0,0,0,0,0,0,0,0,0,0.1438,0.1439,0,0.1494,0.1495,0.1496,0.1557,0.1558,0.1559,0.156,0.1669,0.1671,0.1673,0,0,0,0,0,0,0,0,0,0,0,0,0,0.1427,0.1427,0.1438,0.1439,0.144,0.1494,0.1495,0.1496,0.1557,0.1558,0.1559,0.156,0.1668,0.1671,0.1673,0,0,0,0,0,0,0,0,0,0,0,0,0,0.1453,0.1427,0.1438,0.1477,0.1481,0.1494,0.1495,0.1496,0.1557,0.1558,0.156,0.1561,0.1668,0.1671,0.1674,0.1666,0,0,0.1683,0.1685,0,0,0,0,0,0,0,0,0.1451,0.1453,0.1471,0.1474,0.1479,0.152,0.1531,0.1555,0.1557,0.1528,0.156,0.1562,0.1623,0.163,0.1637,0.1671,0.1676,0.1684,0.1685,0.1687,0.1688,0,0,0,0,0,0,0,0.1449,0.1451,0.1461,0.1471,0.1476,0.1506,0.1511,0.1536,0.1568,0.1531,0.1535,0.1541,0.1626,0.1634,0.164,0.1677,0.1683,0.1686,0.1688,0.1689,0.1821,0.1823,0,0,0,0,0,0,0.1438,0.1449,0.1459,0.1462,0.1468,0.1505,0.151,0.1506,0.1567,0.1577,0.154,0.1544,0.1628,0.1636,0.1644,0.173,0.1687,0.169,0.1691,0.182,0.1822,0.1823,0,0,0,0,0,0,0.1437,0.1438,0.1456,0.1458,0.1462,0.1504,0.1498,0.1506,0.1546,0.1574,0.1585,0.1575,0.1629,0.164,0.1702,0.1731,0.1691,0.1694,0.1818,0.182,0.1823,0.1842,0,0,0,0,0,0,0.1437,0.1437,0.1449,0.1456,0.1462,0.1485,0.1497,0.1506,0.1545,0.1552,0.1607,0.1617,0.1631,0.1698,0.1705,0.1735,0.1696,0.1816,0.1819,0.1822,0.1839,0.1845,0.185,0,0,0,0,0,0.1436,0.1442,0.1449,0.1452,0.147,0.1485,0.1492,0.1526,0.1546,0.1566,0.1612,0.1617,0.1723,0.1702,0.171,0.1741,0.1814,0.1818,0.1822,0.1837,0.1844,0.185,0,0,0,0,0,0,0.1452,0.1448,0.1457,0.1465,0.1483,0.1496,0.1526,0.154,0.1589,0.1611,0.1636,0.1649,0.1714,0.1727,0.1702,0.179,0.177,0.1775,0.1779,0.1786,0.1791,0.1786,0.1699,0,0,0,0,0,0.1456,0.1459,0.1464,0.1477,0.1488,0.1511,0.153,0.1549,0.1583,0.1607,0.1644,0.1689,0.1729,0.1758,0.1793,0.1838,0.1849,0.1865,0.1871,0.1875,0.1879,0.1931,0.1941,0.1836,0.1836,0.1835,0,0,0.1468,0.1468,0.1472,0.1482,0.1503,0.1519,0.1528,0.1563,0.1587,0.1611,0.1675,0.1711,0.1747,0.1801,0.1831,0.182,0.1909,0.1879,0.1883,0.1885,0.1936,0.1946,0.1956,0.1838,0.1838,0.1837,0,0,0.1483,0.1494,0.15,0.1513,0.1542,0.1552,0.1566,0.1596,0.1627,0.1677,0.1707,0.1762,0.1819,0.1851,0.1871,0.1926,0.1935,0.1944,0.1967,0.2018,0.2027,0.2035,0.2047,0.2056,0.1946,0.1946,0.1946,0,0.1504,0.1504,0.151,0.1521,0.1541,0.1567,0.1587,0.1613,0.1663,0.1698,0.1707,0.1811,0.1839,0.1903,0.1925,0.1937,0.1959,0.1936,0.2024,0.2032,0.204,0.2051,0.206,0.1947,0.1947,0.1947,0.1947,0,0.151,0.1527,0.1539,0.1554,0.1576,0.1603,0.1628,0.1671,0.1711,0.1737,0.182,0.1859,0.1925,0.1939,0.1949,0.2023,0.2017,0.2022,0.2002,0.2051,0.206,0.207,0.1949,0.1949,0.1949,0.1948,0,0,0.1509,0.1537,0.1545,0.156,0.1599,0.1611,0.1666,0.1715,0.176,0.1814,0.1874,0.194,0.1974,0.2,0.2025,0.2062,0.2126,0.207,0.2072,0.2072,0.2223,0.2072,0.2068,0.2155,0.2157,0.2159,0.2201,0,0.152,0.154,0.1556,0.1593,0.1607,0.1653,0.1697,0.175,0.1802,0.1867,0.192,0.1987,0.1992,0.2036,0.2077,0.2129,0.2156,0.2112,0.2185,0.2186,0.2039,0.2076,0.2166,0.2208,0.221,0.2212,0.2213,0,0.1511,0.1529,0.1564,0.1611,0.1626,0.166,0.1742,0.1784,0.1875,0.1922,0.1998,0.204,0.2122,0.2108,0.2212,0.2191,0.221,0.2227,0.223,0.2089,0.2054,0.2155,0.223,0.2229,0.2227,0.2226,0.2225,0,0.1484,0.153,0.1561,0.1576,0.1636,0.1683,0.1729,0.1815,0.1859,0.1969,0.2017,0.2111,0.2178,0.2228,0.2273,0.2262,0.2358,0.2348,0.2218,0.2207,0.232,0.2312,0.2401,0.2401,0.2401,0.24,0.24,0,0.146,0.1487,0.1558,0.1571,0.1622,0.1678,0.1749,0.181,0.1904,0.1949,0.2052,0.21,0.2219,0.2281,0.2298,0.2285,0.2388,0.2221,0.2212,0.2325,0.2317,0.2326,0.2317,0.2402,0.2402,0.2401,0.2401,0,0.1408,0.1457,0.1492,0.1574,0.1607,0.1643,0.1741,0.1779,0.1892,0.1957,0.1996,0.213,0.2213,0.2283,0.2369,0.2309,0.2312,0.2275,0.2378,0.2375,0.2115,0.2107,0.2132,0.2127,0.2123,0.2119,0.2116,0,0.1373,0.1393,0.1481,0.1497,0.1539,0.1607,0.1649,0.1763,0.1788,0.1947,0.1953,0.2091,0.2158,0.2158,0.2251,0.2262,0.2235,0.2212,0.2163,0.2101,0.2091,0.2089,0.2086,0.211,0.2109,0.2107,0.2106,0,0.1307,0.136,0.1383,0.1426,0.147,0.1498,0.156,0.1572,0.1693,0.1822,0.1866,0.1918,0.2003,0.2068,0.2093,0.2097,0.2217,0.2168,0.2176,0.2131,0.2075,0.2068,0.2071,0.2092,0.2094,0.2096,0.2096,0,0.126,0.1257,0.1301,0.1321,0.1361,0.1347,0.1409,0.1439,0.1493,0.1661,0.1681,0.1833,0.1978,0.1982,0.2006,0.2,0.1969,0.1895,0.1916,0.1933,0.185,0.1748,0.1658,0,0,0,0,0,0.1198,0.1178,0.1187,0.118,0.1209,0.1241,0.1314,0.1378,0.1511,0.1492,0.1575,0.1641,0.1708,0.1797,0.1752,0.191,0.1967,0.1848,0.189,0.2013,0.2029,0.195,0,0,0,0,0,0,0.115,0.1156,0.1145,0.1052,0.103,0.1048,0.1099,0.12,0.1189,0.1348,0.1398,0.1528,0.1622,0.1714,0.1718,0.174,0.1728,0.1946,0.1941,0.2004,0.2019,0.2032,0.1956,0,0,0,0,0]},{"header":{"parameterUnit":"m.s-1","parameterCategory":2,"la1":30.2991,"la2":30.254,"lo1":-89.0895,"lo2":-89.0444,"dy":0.0017,"dx":0.0017,"nx":28,"ny":28,"refTime":"2024-04-23T09:00:00:Z","depth":"4","parameterNumber":3,"parameterNumberName":"V-component_of_CURRENTS"},"data":[0,0,0,0,0,0,0,0,0,0,0,0,0,0,0,0,0,0,0,0,0,0,0,0,0,0,0,0,0,0,0,0,0,0,0,0,0,0,0,0,0,0,0,0,0,0,0,0,0,0,0,0,0,0,0,0,0,0,0.011,0.011,0,0.008,0.008,0.0079,0.0061,0.0061,0.0061,0.0061,0.004,0.0039,0.0039,0,0,0,0,0,0,0,0,0,0,0,0,0,0.0126,0.0126,0.011,0.011,0.0109,0.008,0.008,0.0079,0.0061,0.0061,0.0061,0.0061,0.004,0.0039,0.0039,0,0,0,0,0,0,0,0,0,0,0,0,0,0.011,0.0126,0.011,0.0097,0.0096,0.008,0.008,0.0079,0.0061,0.0061,0.0061,0.0061,0.004,0.004,0.0039,0.0036,0,0,0.0036,0.0036,0,0,0,0,0,0,0,0,0.0111,0.0109,0.0099,0.0098,0.0096,0.0074,0.0078,0.0065,0.0061,0.0074,0.0061,0.0061,0.0053,0.0051,0.0045,0.0035,0.0034,0.0036,0.0036,0.0036,0.0035,0,0,0,0,0,0,0,0.0112,0.011,0.0098,0.0099,0.0097,0.0084,0.0082,0.0075,0.0064,0.0072,0.0071,0.0069,0.0052,0.0045,0.0044,0.0034,0.0036,0.0036,0.0035,0.0035,0.002,0.002,0,0,0,0,0,0,0.0118,0.0111,0.0099,0.0097,0.0104,0.0084,0.0081,0.0081,0.0064,0.0061,0.0069,0.0068,0.0047,0.0045,0.0043,0.0046,0.0036,0.0035,0.0034,0.002,0.002,0.002,0,0,0,0,0,0,0.0118,0.0117,0.01,0.0104,0.01,0.0084,0.0084,0.0081,0.0078,0.0061,0.0058,0.0069,0.0047,0.0044,0.004,0.0045,0.0035,0.0034,0.002,0.002,0.002,0.0047,0,0,0,0,0,0,0.0119,0.0118,0.0122,0.0104,0.0101,0.0095,0.0084,0.008,0.0076,0.0075,0.0061,0.0058,0.0046,0.0041,0.0039,0.0044,0.0033,0.002,0.002,0.002,0.0046,0.0048,0.0049,0,0,0,0,0,0.012,0.0126,0.0122,0.0121,0.0106,0.0096,0.0093,0.008,0.0077,0.0077,0.0067,0.0059,0.004,0.0041,0.0038,0.0043,0.002,0.002,0.002,0.0045,0.0047,0.0049,0,0,0,0,0,0,0.0135,0.0124,0.012,0.0123,0.0112,0.0093,0.0094,0.0085,0.0076,0.0078,0.0061,0.0058,0.0054,0.0045,0.0046,0.0038,0.0028,0.0028,0.0048,0.005,0.0052,0.0064,0.0033,0,0,0,0,0,0.0141,0.0144,0.0129,0.0132,0.0129,0.0113,0.0108,0.01,0.0089,0.0085,0.0073,0.0062,0.0052,0.0049,0.0038,0.0037,0.0017,0.0037,0.0039,0.0041,0.0049,0.002,0.002,0.002,0.002,0.002,0,0,0.0148,0.0143,0.0145,0.0136,0.0128,0.0128,0.011,0.0107,0.0109,0.0085,0.0085,0.0068,0.0053,0.0048,0.0046,0.0042,0.0028,0.0041,0.0043,0.005,0.002,0.002,0.002,0.0021,0.0021,0.0021,0,0,0.0164,0.016,0.0167,0.0162,0.0153,0.0143,0.0145,0.0128,0.0124,0.012,0.0102,0.0089,0.0077,0.0063,0.0056,0.0062,0.0038,0.0058,0.0079,0.0051,0.0051,0.005,0.0017,0.0013,0.006,0.006,0.006,0,0.0172,0.0179,0.0167,0.0172,0.0173,0.0153,0.0161,0.0153,0.0138,0.0136,0.0126,0.01,0.0084,0.0078,0.0078,0.0067,0.0045,0.0073,0.0053,0.0053,0.0052,0.0018,0.0013,0.0062,0.0062,0.0061,0.0061,0,0.019,0.0198,0.0202,0.0204,0.0202,0.0206,0.0195,0.0194,0.0185,0.0172,0.0162,0.0135,0.0121,0.0109,0.0097,0.0084,0.0067,0.0058,0.0049,0.0053,0.0017,0.0012,0.0064,0.0063,0.0063,0.0062,0,0,0.0202,0.0213,0.0215,0.0226,0.0221,0.0223,0.023,0.0226,0.0233,0.021,0.0211,0.0185,0.0165,0.0156,0.0132,0.0107,0.0074,0.0083,0.0081,0.0053,0.0006,0.0005,-0.0001,0.006,0.0059,0.0059,-0.002,0,0.0219,0.0241,0.024,0.0264,0.0273,0.0265,0.0276,0.0271,0.0259,0.0254,0.0223,0.0214,0.0185,0.0179,0.0148,0.0098,0.0064,0.0097,0.0004,0.0002,0.0003,-0.0005,0.0057,-0.0024,-0.0025,-0.0026,-0.0027,0,0.0235,0.0249,0.0276,0.03,0.0304,0.0318,0.0332,0.0339,0.0325,0.0316,0.0294,0.0264,0.0232,0.0204,0.0118,0.014,0.0077,0.0031,0.0026,0.0016,-0.0008,-0.0028,-0.0036,-0.0036,-0.0035,-0.0034,-0.0034,0,0.0251,0.0275,0.0302,0.0309,0.0329,0.0348,0.0362,0.0359,0.0374,0.0357,0.0358,0.0306,0.0289,0.0208,0.0112,0.0114,0.0007,-0.0002,-0.0067,-0.0069,-0.0056,-0.0055,-0.0072,-0.0072,-0.0072,-0.0071,-0.0071,0,0.0265,0.0286,0.0317,0.0332,0.0373,0.0379,0.0418,0.042,0.0429,0.0452,0.0396,0.0395,0.0289,0.0215,0.0121,0.0013,0.0011,-0.0064,-0.0087,-0.0045,-0.0041,-0.0061,-0.0058,-0.0074,-0.0074,-0.0073,-0.0073,0,0.0271,0.029,0.0325,0.0364,0.0383,0.0414,0.0468,0.0496,0.0496,0.0524,0.0523,0.0462,0.0373,0.0249,0.0114,0.0035,-0.0075,-0.0119,-0.007,-0.009,-0.0136,-0.0132,-0.0189,-0.019,-0.019,-0.0191,-0.0191,0,0.0272,0.0293,0.0353,0.0387,0.0409,0.0461,0.0505,0.0531,0.0562,0.0568,0.0583,0.0507,0.0451,0.0259,0.0123,-0.0065,-0.0094,-0.0161,-0.0143,-0.013,-0.0148,-0.0142,-0.0137,-0.0192,-0.0192,-0.0192,-0.0192,0,0.0276,0.0304,0.0338,0.0413,0.0469,0.053,0.0592,0.0621,0.0655,0.0652,0.0638,0.0539,0.0434,0.0278,0.0122,-0.0012,-0.0118,-0.0167,-0.0167,-0.015,-0.0135,-0.015,-0.0144,-0.0194,-0.0194,-0.0194,-0.0194,0,0.0286,0.0311,0.0371,0.0436,0.0509,0.0585,0.0615,0.0661,0.0694,0.0698,0.0692,0.0575,0.0506,0.0304,0.0165,0.0029,-0.0,-0.0047,-0.0054,-0.0053,0.0009,0.005,0.0028,0,0,0,0,0,0.0296,0.0334,0.0392,0.0472,0.0545,0.0596,0.067,0.0696,0.0727,0.0728,0.0714,0.0617,0.0425,0.0337,0.0204,0.0147,-0.0034,-0.0016,-0.0094,-0.0204,-0.0202,-0.0152,0,0,0,0,0,0,0.0306,0.036,0.0392,0.0494,0.0554,0.0646,0.0699,0.0722,0.072,0.0723,0.0624,0.0576,0.0386,0.0502,0.0199,0.0157,0.0088,-0.0107,-0.011,-0.0206,-0.0204,-0.0202,-0.015,0,0,0,0,0]}]]